Location: Santa Barbara
(34.4500°N, 119.7700°W)
Time: 00:19:21
(UTC-07:00)

Cosmos 1892 Rocket - Visible Passes

Search period start: 30 May 2017 00:00
Search period end: 09 June 2017 00:00
Orbit: 605 x 634 km, 82.5° (Epoch: 29 May)

Date Brightness Start Highest point End Pass type
(mag) Time Alt. Az. Time Alt. Az. Time Alt. Az.
30 May 4.8 21:59:52 10° SSW 22:04:01 40° W 22:08:10 10° N visible
31 May 4.6 20:40:19 10° SE 20:43:59 26° E 20:47:39 10° NNE visible
31 May 6.0 22:18:29 10° SW 22:21:48 21° WNW 22:25:06 10° NNW visible
01 Jun 3.7 20:57:13 10° S 21:01:31 53° E 21:05:47 10° NNE visible
01 Jun 6.7 22:38:49 10° W 22:39:41 10° WNW 22:40:32 10° WNW visible
02 Jun 3.7 21:14:42 10° S 21:19:06 75° W 21:23:30 10° N visible
03 Jun 5.1 21:32:44 10° SSW 21:36:48 36° W 21:40:52 10° NNW visible
04 Jun 6.2 21:51:29 10° WSW 21:54:36 19° WNW 21:57:42 10° NNW visible
05 Jun 3.7 20:29:57 10° S 20:34:16 58° E 20:38:34 10° NNE visible
06 Jun 4.0 20:47:31 10° SSW 20:51:53 68° W 20:56:14 10° N visible
07 Jun 5.4 21:05:38 10° SW 21:09:35 33° W 21:13:32 10° NNW visible
08 Jun 6.4 21:24:30 10° WSW 21:27:23 17° WNW 21:30:17 10° NNW visible
